STARLINK-32122, 60285

Orbit data source: Space-Track

STARLINK-32122, 60285 is a payload satellite owned by SpaceX/Seattle (US) in LEO that was launched on Sun, 28 Jul 2024 UTC via an FALCON 9 launch vehicle from the Air Force Eastern Test Range (AFETR). Payload-class satellites include a variety of spacecraft equipped with specific instruments for various scientific and technological missions. These include communications satellites like Starlink; space stations such as the ISS; scientific satellites like the Hubble; Earth observation satellites from companies like Planet Labs, Umbra, and HawkEye 360; GPS; miniature CubeSats for education and research; and military/defense satellites.

Loading next visibility...
Identifier
60285, 2024-132H
Orbit
LEO
Last TLE update
23 hours ago
Origin
Manufacturer
SpaceX/Seattle
Mission
Operational spacecraft
Bus & Motor
STARLINK V2M, Unknown motor
Mass
730 kg wet, ~700 kg dry
Launch date (UTC)
2024-07-28 (11 months ago)
Launch vehicle
FALCON 9
Launch site
Air Force Eastern Test Range (AFETR)
Object type
Payload
Rocket body
Debris
Shape & HBR
Unknown
Radar Cross Section
Large (>1 m²)

Expand to show TLE details & history

TLE from 23 hours ago
0 STARLINK-32122
1 60285U 24132H   25181.27174879  .00000296  00000-0  22121-4 0  9994
2 60285  53.1590 144.9196 0001244  93.0994 267.0149 15.30192050 52917
Epoch: 2025-06-30T06:31Z
TLE epoch observation values (Epoch: 2025-06-30T06:31:19.095Z)
Latitude
-0.00003°
Longitude
128.50607°
Altitude
476.183 km
Speed
7.629 km/s
True Right ascension
09h 39m 40s
True Declination
0° 00' 00"
Sunlit
Object was in daylight at epoch
Visualization orbit readout
Latitude
-45.82683°
Longitude
-5.87125°
Altitude
491.519 km
Speed
7.619 km/s
Apparent Right ascension
02h 57m 19s
Apparent Declination
-47° 57' 17"
Sunlit
Object is in daylight
Visualization observer readout
Local Sidereal Time
17:09:14
Azimuth
119.836° SE
Elevation
-65.15°
Doppler factor
1
Orbital elements
Apogee altitude
476.348 km
Perigee altitude
474.643 km
Semi-major axis
6,853.632 km
Eccentricity
0.00012
Inclination
53.159°
RAAN
144.9196°
Arg. of periapsis
93.0994°
True anomaly
Unknown
Mean anomaly
267.0149°
Eccentric anomaly
Unknown
Mean motion
3.82527 °/min
Orbital period
94.11 mins
BSTAR
0.000022121
Loading maneuver chart data...
Loading SW <> Apogee altitude chart data...
Loading historical data...
Loading historical data...
Loading historical data...
Loading historical data...
Loading historical data...
Loading historical data...
Loading historical data...

STARLINK-32122 Visibility forecast

Observer location: undefined°, undefined°

Span
Click to sort rows by Start time (UTC) header in descending order
Start Az.
Max El. time (UTC)
Max El. Az.
Max El.
End time (UTC)
End Az.
6 mins2025-07-01 06:30:35.631Z321.861° NNW2025-07-01 06:33:35.631Z22.163° NNE34.737°2025-07-01 06:36:35.631Z104.313° ESE
5 mins2025-07-01 23:27:35.631Z191.954° SSW2025-07-01 23:29:35.631Z123.62° SE33.837°2025-07-01 23:32:35.631Z63.711° ENE
4 mins2025-07-02 01:05:35.631Z287.481° WNW2025-07-02 01:07:35.631Z337.381° NNW24.265°2025-07-02 01:09:35.631Z21.087° NNE
|